Regional Weather Roundup
Issued by NWS

Home | Current Version | Previous Version | Graphics & Text | Print | Product List | Glossary On
Versions: 1 2 3 4 5 6 7 8 9 10 11 12 13 14 15 16 17 18 19 20 21 22 23 24 25 26 27 28 29 30 31 32 33 34 35 36 37 38 39 40 41 42 43 44 45 46 47 48 49 50
000
ASUS43 KIND 042009
RWRIN

WEATHER ROUNDUP FOR INDIANA
NATIONAL WEATHER SERVICE INDIANAPOLIS IN
300 PM EST SUN DEC 04 2016

NOTE: "FAIR" INDICATES FEW OR NO CLOUDS BELOW 12,000 FEET WITH NO
SIGNIFICANT WEATHER AND/OR OBSTRUCTIONS TO VISIBILITY.

* - STATION DOES NOT REPORT WEATHER SUCH AS PRECIPITATION OR FOG.

+ - STATION NOT QUALITY CONTROLLED BY THE NATIONAL WEATHER SERVICE.
    USE DATA WITH CAUTION...ESPECIALLY DEWPOINT AND RELATIVE
    HUMIDITY OBSERVATIONS.

INZ001>003-010>013-019-020-042100-
NORTHWEST INDIANA

CITY           SKY/WX    TMP DP  RH WIND       PRES   REMARKS
KNOX *+        CLOUDY    32  25  74 E5        29.95F VSB 3/4 WCI  27
LA PORTE +     LGT SNOW N/A N/A N/A E7        29.95F VSB 3/4
MICHIGAN CITY+ SNOW      32  32 100 CALM      29.96F VSB 1/2
MONTICELLO +   LGT SNOW  33  30  89 E6        29.92F WCI  28
RENSSELAER +   SNOW      32  32 100 E6        29.94F VSB 1/2 WCI  26
VALPARAISO     SNOW      33  31  92 E7        29.95F VSB 1/2 WCI  27

$$

LMZ046-743>745-042100-
SOUTHERN LAKE MICHIGAN

STATION/POSITION TIME  TEMP    WIND        PRES    WAVE
                       AIR SEA DIR/SP/G            HT
                 (UTC) (F)     (DEG/KT/KT) (MB)    (FT)
BURNS HARBOR     1940   33      90/  7/  9 1014.6F

$$

INZ004-005-014>016-021>024-042100-
NORTH CENTRAL INDIANA

CITY           SKY/WX    TMP DP  RH WIND       PRES   REMARKS
ELKHART        LGT SNOW  34  32  93 E6        29.97F VSB 1   WCI  29
GOSHEN         LGT SNOW  34  30  85 E7        29.97F VSB 1   WCI  28
LOGANSPORT +   LGT SNOW  32  32 100 NE5       29.94F WCI  27
PERU/GRISSOM   LGT SNOW  34  33  99 NE10      29.92F FOG     WCI  26
ROCHESTER +    LGT SNOW  34  34 100 E5        29.95F VSB 1   WCI  30
SOUTH BEND     SNOW      32  31  96 E6        29.97F VSB 1/2 WCI  26
WARSAW +       LGT SNOW  32  30  93 E5        29.96F WCI  27

$$

INZ006>009-017-018-025>027-042100-
NORTHEAST INDIANA

CITY           SKY/WX    TMP DP  RH WIND       PRES   REMARKS
ANGOLA *+      CLOUDY    36  30  80 E9        29.99F
AUBURN +       LGT RAIN  37  32  81 E6        30.00F
FORT WAYNE     LGT RAIN  38  32  79 E10       29.98F
HUNTINGTON +   LGT RAIN  36  33  90 E6        29.96F
KENDALLVILLE + LGT RAIN  35  32  88 E6        29.98F WCI  30

$$

INZ028-029-035-036-043>045-051>053-042100-
WEST CENTRAL INDIANA

CITY           SKY/WX    TMP DP  RH WIND       PRES   REMARKS
CRAWFORDSVL +  LGT SNOW  36  36 100 E3        29.91S
GREENCASTLE +  LGT RAIN  37  37 100 SE5       29.90F
LAFAYETTE      RAIN      35  35 100 E7        29.93S FOG     WCI  29
TERRE HAUTE    LGT RAIN  40  38  93 CALM      29.90F FOG

$$

INZ030>032-037>040-046>048-054>057-064-065-042100-
CENTRAL INDIANA

CITY           SKY/WX    TMP DP  RH WIND       PRES   REMARKS
CP ATTERBURY + LGT RAIN  41  37  87 SE7       29.91F
COLUMBUS       CLOUDY    39  39 100 SE7       29.92  FOG
FISHERS *+     CLOUDY    37  37 100 CALM      29.91F
FRANKFORT +    RAIN      39  37  92 SE10      29.92F
GREENWOOD *+   CLOUDY    39  37  90 SE7       29.92F
INDIANAPOLIS   LGT RAIN  38  36  92 SE8       29.90F VSB 1
-EAGLE CREEK   LGT RAIN  39  36  89 SE7       29.90F FOG
KOKOMO +       RAIN      36  34  92 E13       29.93  FOG
MARION +       LGT RAIN  35  33  90 E8        29.94F WCI  29
MT COMFORT *+  CLOUDY    37  36  93 SE12      29.91F
SHELBYVILLE    LGT RAIN  41  34  76 SE14      29.91F
ZIONSVILLE +   LGT RAIN  37  35  92 E8        29.91F

$$

INZ033-034-041-042-049-050-058-059-042100-
EAST CENTRAL INDIANA

CITY           SKY/WX    TMP DP  RH WIND       PRES   REMARKS
MUNCIE         LGT RAIN  39  33  79 E10       29.92F

$$

INZ060-061-067>069-081>083-085>088-042100-
SOUTHWEST INDIANA

CITY           SKY/WX    TMP DP  RH WIND       PRES   REMARKS
EVANSVILLE     LGT RAIN  44  42  93 S6        29.93F FOG
HUNTINGBURG *+ CLOUDY    45  43  93 S7        29.92F
WASHINGTON +   DRIZZLE   43  43 100 S9        29.90F

$$

INZ062-063-066-070>080-084-089>092-042100-
SOUTH CENTRAL AND SOUTHEAST INDIANA

CITY           SKY/WX    TMP DP  RH WIND       PRES   REMARKS
BLOOMINGTON    LGT RAIN  41  38  89 SE9       29.89F FOG
MADISON *+     CLOUDY    45  36  70 SE5       29.93F
NORTH VERNON + DRIZZLE   43  43 100 SE5       29.93F
SEYMOUR +      DRIZZLE   43  41  93 SE5       29.91

$$




USA.gov is the U.S. government's official web portal to all federal, state and local government web resources and services.